Skip Page Navigation
NASA JPL Caltech
NASA Logo - Jet Propulsion Laboratory + View the NASA Portal
+ Center for Near-Earth Object Studies
JPL Home Earth Solar System Stars & Galaxies Technology
JPL Solar System Dynamics
BODIES ORBITS EPHEMERIDES TOOLS PHYSICAL DATA DISCOVERY FAQ SITE MAP
JPL Small-Body Database Browser
Search: [ help ]  
441407 (2008 FV137)
Classification: Main-belt Asteroid          SPK-ID: 2441407
Ephemeris | Orbit Diagram | Orbital Elements | Mission Design | Physical Parameters | Discovery Circumstances | Close-Approach Data ]

[ show orbit diagram ]
Orbital Elements at Epoch 2459000.5 (2020-May-31.0) TDB
Reference: JPL 26 (heliocentric ecliptic J2000)
 Element Value Uncertainty (1-sigma)   Units 
e .186543303907785 7.2466e-08  
a 3.19481715709164 7.4309e-08 au
q 2.598845409226489 2.5876e-07 au
i 16.79489825898125 7.1683e-06 deg
node 135.2817072493766 2.612e-05 deg
peri 100.4682524136104 4.1205e-05 deg
M 20.43698795521829 3.1561e-05 deg
tp 2458882.091786916662
(2020-Feb-02.59178692)
0.00018008 TDB
period 2085.77490985493
5.71
7.277e-05
1.992e-07
d
yr
n .1725977229369581 6.0217e-09 deg/d
Q 3.790788904956791 8.817e-08 au
  Orbit Determination Parameters
   # obs. used (total)      141  
   data-arc span      4457 days (12.20 yr)  
   first obs. used      2008-03-31  
   last obs. used      2020-06-13  
   planetary ephem.      DE431  
   SB-pert. ephem.      SB431-N16  
   condition code      0  
   norm. resid. RMS      .63971  
   source      ORB  
   producer      Otto Matic  
   solution date      2020-Nov-12 08:56:15  

Additional Information
 Earth MOID = 1.652 au 
 Jupiter MOID = 1.671 au 
 T_jup = 3.103 
[ show covariance matrix ]

Ephemeris | Orbit Diagram | Orbital Elements | Mission Design | Physical Parameters | Discovery Circumstances | Close-Approach Data ]

Physical Parameter Table
Parameter Symbol Value Units Sigma Reference Notes
absolute magnitude H 15.7   n/a MPO472457  

441407 (2008 FV137)          Discovered 2008-Mar-31 by CSS at Catalina
Reference: Last Updated: 2015-09-02

[ show close-approach data ]
Alternate Designations
 2008 FV137 = 2013 BP39 
Ephemeris | Orbit Diagram | Orbital Elements | Mission Design | Physical Parameters | Discovery Circumstances | Close-Approach Data ]
ABOUT SSD CREDITS/AWARDS PRIVACY/COPYRIGHT GLOSSARY LINKS
FirstGov 2020-Nov-30 00:09 UT
(server date/time)  
NASA Home Page
Site Manager:   Ryan S. Park
Webmaster  Alan B. Chamberlin